Location: Valencia
(39.4670°N, 0.3670°W)
Time: 08:49:17
(UTC+02:00)

ISS - Pass Details

Date: 10 July 2017
Orbit: 400 x 408 km, 51.6° (Epoch: 21 July)

Event Time Altitude Azimuth Distance (km) Brightness Sun altitude
Exits shadow 03:34:45 13° 84° (E) 1,286 -1.0 -25.0°
Drops below altitude 10° 03:35:15 10° 78° (ENE) 1,451 -0.6 -24.9°
Sets 03:37:35 0° 63° (ENE) 2,316 0.7 -24.8°
